Lewistown, MT

8:07 PM MST on January 20, 2017 (GMT -0700)
Lewistown Municipal

Weather History for KLWT - January, 2012

Change the Weather History Date:

Saturday, January 7, 2012

  Actual Average Record
Temperature  
Mean Temperature 24 °F 23 °F  
Max Temperature 34 °F 34 °F 68 °F (2003)
Min Temperature 13 °F 12 °F -30 °F (1937)
Degree Days  
Heating Degree Days 41 42  
Month to date heating degree days 206 294  
Since 1 July heating degree days 3196 3716  
Cooling Degree Days 0 0  
Month to date cooling degree days 0 0  
Year to date cooling degree days 0 0  
Moisture  
Dew Point 12 °F    
Average Humidity 59    
Maximum Humidity 80    
Minimum Humidity 38    
Precipitation  
Precipitation 0.00 in 0.02 in 0.27 in (1971)
Month to date precipitation 0.00 0.14  
Year to date precipitation 0.00 0.14  
Snow  
Snow 0.00 in - - ()
Snow Depth 0.00 in    
Sea Level Pressure  
Sea Level Pressure 30.19 in    
Wind  
Wind Speed 8 mph (WSW)    
Max Wind Speed 21 mph    
Max Gust Speed 26 mph    
Visibility 10 miles    
Events      
T = Trace of Precipitation, MM = Missing Value Source: NWS Daily Summary

Daily Weather History Graph

Daily Weather History Graph

Search for Another Location

Airport or City:

Trip Planner

Search our weather history database for the weather conditions in past years. The results will help you decide how hot, cold, wet, or windy it might be!

Date:

Astronomy

Jan. 07, 2012 Rise Set
Actual Time 8:03 AM MST 4:45 PM MST
Civil Twilight 7:28 AM MST 5:20 PM MST
Nautical Twilight 6:49 AM MST 5:58 PM MST
Astronomical Twilight 6:12 AM MST 6:35 PM MST
Moon 3:31 PM MST (1/7) 6:38 AM MST (1/7)
Length of Visible Light 9h 51m
Length of Day
8h 41m
Waxing Gibbous, 98% of the Moon is Illuminated
Jan 7
Waxing Gibbous
Jan 9
Full
Jan 16
Last Quarter
Jan 23
New
Jan 30
First Quarter

Hourly Weather History & Observations

Time (MST) Temp. Windchill Dew Point Humidity Pressure Visibility Wind Dir Wind Speed Gust Speed Precip Events Conditions
1:54 AM 19.0 °F 13.9 °F 12.0 °F 74% 30.09 in 10.0 mi South 3.5 mph - N/A   Clear
2:54 AM 19.0 °F 7.5 °F 10.9 °F 71% 30.09 in 10.0 mi SW 10.4 mph - N/A   Clear
3:54 AM 19.0 °F 6.8 °F 10.9 °F 71% 30.12 in 10.0 mi WSW 11.5 mph - N/A   Clear
4:54 AM 19.0 °F 7.5 °F 10.9 °F 71% 30.14 in 10.0 mi SW 10.4 mph - N/A   Clear
5:54 AM 18.0 °F - 10.0 °F 71% 30.18 in 10.0 mi Calm Calm - N/A   Clear
6:54 AM 16.0 °F 10.4 °F 10.0 °F 77% 30.20 in 10.0 mi ESE 3.5 mph - N/A   Clear
7:54 AM 15.1 °F 7.7 °F 9.0 °F 77% 30.21 in 10.0 mi SSE 4.6 mph - N/A   Clear
8:54 AM 23.0 °F 14.7 °F 12.0 °F 63% 30.22 in 10.0 mi WNW 6.9 mph - N/A   Clear
9:54 AM 26.1 °F 18.4 °F 12.0 °F 55% 30.23 in 10.0 mi West 6.9 mph - N/A   Clear
10:54 AM 28.9 °F 21.1 °F 12.0 °F 49% 30.23 in 10.0 mi West 8.1 mph - N/A   Clear
11:54 AM 30.0 °F 22.4 °F 12.9 °F 49% 30.22 in 10.0 mi West 8.1 mph - N/A   Clear
12:54 PM 32.0 °F - 12.9 °F 45% 30.19 in 10.0 mi North - - N/A   Clear
1:54 PM 34.0 °F 25.5 °F 10.9 °F 38% 30.19 in 10.0 mi WNW 11.5 mph 21.9 mph N/A   Clear
2:54 PM 34.0 °F 24.6 °F 10.9 °F 38% 30.19 in 10.0 mi WNW 13.8 mph - N/A   Clear
4:54 PM 28.0 °F 22.8 °F 12.0 °F 51% 30.22 in 10.0 mi West 4.6 mph - N/A   Clear
5:54 PM 23.0 °F 14.7 °F 12.9 °F 65% 30.25 in 10.0 mi West 6.9 mph - N/A   Mostly Cloudy
6:54 PM 24.1 °F 13.1 °F 14.0 °F 65% 30.24 in 10.0 mi SW 11.5 mph - N/A   Scattered Clouds
7:54 PM 23.0 °F 11.7 °F 14.0 °F 68% 30.22 in 10.0 mi SW 11.5 mph - N/A   Clear
8:54 PM 23.0 °F 11.7 °F 14.0 °F 68% 30.20 in 10.0 mi SW 11.5 mph - N/A   Clear
9:54 PM 21.9 °F 10.4 °F 12.9 °F 68% 30.20 in 10.0 mi SW 11.5 mph - N/A   Clear
10:54 PM 21.0 °F 11.4 °F 12.0 °F 68% 30.20 in 10.0 mi SSW 8.1 mph - N/A   Clear
11:54 PM 21.9 °F 11.7 °F 10.9 °F 63% 30.18 in 10.0 mi SW 9.2 mph - N/A   Clear